Header for Extended Forecast Station List Page

Search by: ID | Name | Date | Parm | Value | Avg | % Avg
Sort by: ID | Name | Date | Parm | Value | Avg | % Avg

Enter search or view all records.

Click on id for station plot
#IDNameDateParmValueAvg% Avg
0ABOM8CLARK FORK-ABOVE MISSOULA02-20-2024DISCHARGE (KAF)757107870
1AFRI1SNAKE-AMERICAN FALLS RESERVOIR02-20-2024INFLOW (KAF)22871714133
2ALFW1PEND OREILLE-ALBENI FALLS DAM02-20-2024INFLOW (KAF)6773880577
3ALPW4SNAKE-NEAR ALPINE02-20-2024DISCHARGE (KAF)1170132588
4ANAW1SNAKE-NEAR ANATONE02-20-2024DISCHARGE (KAF)98541148786
5ANTI1HENRYS FORK-AT ST. ANTHONY02-20-2024DISCHARGE (KAF)610586104
6ARAI1SF BOISE-ANDERSON RANCH DAM02-20-2024INFLOW (KAF)439373118
7ARDW1ENTIAT-NEAR ARDENVOIR02-20-2024DISCHARGE (KAF)13314294
8BELM8CLARK FORK-BELOW MISSOULA02-20-2024DISCHARGE (KAF)1478202473
9BERO3MALHEUR-AGENCY VALLEY DAM02-20-2024INFLOW (KAF)7852150
10BFEI1KOOTENAI-AT BONNERS FERRY02-20-2024STAGE (FT)MMM
11BFTI1SNAKE-NEAR BLACKFOOT02-20-2024DISCHARGE (KAF)16101069151
12BIGI1BOISE-AT GLENWOOD BRIDGE02-20-2024DISCHARGE (KAF)466208224
13BITM8BITTERROOT-NEAR MISSOULA02-20-2024DISCHARGE (KAF)72190580
14BONM8BLACKFOOT-NEAR BONNER02-20-2024DISCHARGE (KAF)39461664
15BONO3COLUMBIA-BONNEVILLE DAM02-20-2024INFLOW (KAF)428075562477
16BRNI1SNAKE-BROWNLEE DAM02-20-2024INFLOW (KAF)48724479109
17BUDW1BUMPING-BUMPING LAKE DAM02-20-2024INFLOW (KAF)10294109
18BULO3BULLY CREEK-BULLY CREEK DAM02-20-2024INFLOW (KAF)344767
19CABI1CLARK FORK-CABINET GORGE DAM02-20-2024INFLOW (KAF)5212752069
20CFMM8FLATHEAD-AT COLUMBIA FALLS02-20-2024DISCHARGE (KAF)2601328579
21CHDW1CHELAN-LAKE CHELAN DAM02-20-2024INFLOW (KAF)56173377
22CHEI1FALL RIVER-NEAR CHESTER02-20-2024DISCHARGE (KAF)323295109
23CHJW1COLUMBIA-CHIEF JOSEPH DAM02-20-2024INFLOW (KAF)199852768672
24CIBW1COLUMBIA-AT INTL BOUNDARY02-20-2024DISCHARGE (KAF)168382406370
25CLFW1NACHES-NEAR CLIFFDEL02-20-2024DISCHARGE (KAF)334329102
26CLUW1CLE ELUM-CLE ELUM LAKE02-20-2024INFLOW (KAF)321312103
27COEI1COEUR D ALENE-COEUR D ALENE LAKE02-20-2024INFLOW (KAF)2297262987
28CSDI1NF PAYETTE-CASCADE DAM02-20-2024INFLOW (KAF)36643784
29DEDI1DEADWOOD-NEAR LOWMAN02-20-2024INFLOW (KAF)8910188
30DLGM8CLARK FORK-AT DEER LODGE02-20-2024DISCHARGE (KAF)687590
31DRMM8CLARK FORK-NR DRUMMOND02-20-2024DISCHARGE (KAF)18721488
32DWRI1NF CLEARWATER-DWORSHAK DAM02-20-2024INFLOW (KAF)2094240987
33EASW1YAKIMA-AT EASTON02-20-2024DISCHARGE (KAF)939994
34EMMI1PAYETTE-NEAR EMMETT02-20-2024DISCHARGE (KAF)900107784
35FCFM8NF FLATHEAD-NEAR COLUMBIA FALLS02-20-2024DISCHARGE (KAF)887117675
36GCDW1COLUMBIA-GRAND COULEE DAM02-20-2024INFLOW (KAF)210012770376
37GIBO3UMATILLA-NEAR GIBBON02-20-2024DISCHARGE (KAF)9188104
38HALI1BIG WOOD-AT HAILEY02-20-2024DISCHARGE (KAF)167153109
39HEII1SNAKE-NEAR HEISE02-20-2024DISCHARGE (KAF)20261791113
40HHWM8SF FLATHEAD-HUNGRY HORSE DAM02-20-2024INFLOW (KAF)1312151786
41HODO3HOOD-NEAR TUCKER BRIDGE02-20-2024DISCHARGE (KAF)320255126
42HOPI1PEND OREILLE-LAKE PEND OREILLE NR HOPE02-20-2024LAKE ELEVATION (FT)MMM
43HOTI1BRUNEAU-NEAR HOT SPRINGS02-20-2024DISCHARGE (KAF)234145161
44HWRI1BIG LOST-AT HOWELL RANCH NEAR CHILLY02-20-2024DISCHARGE (KAF)11591127
45IHDW1SNAKE-ICE HARBOR DAM02-20-2024INFLOW (KAF)146891801482
46IPDI1HENRYS FORK-ISLAND PARK DAM02-20-2024INFLOW (KAF)15616396
47JDAO3COLUMBIA-JOHN DAY DAM02-20-2024INFLOW (KAF)410285307677
48JKSW4SNAKE-NEAR JACKSON02-20-2024DISCHARGE (KAF)917102789
49JLKW4SNAKE-JACKSON LAKE AT DAM02-20-2024INFLOW (KAF)563563100
50KADW1KACHESS-KACHESS DAM02-20-2024INFLOW (KAF)969998
51KEDW1YAKIMA-KEECHELUS LAKE02-20-2024INFLOW (KAF)110106104
52KERM8FLATHEAD-SELI’Š KSANKA QLISPE’ DAM02-20-2024INFLOW (KAF)3166409177
53KIOW1YAKIMA-AT KIONA02-20-2024DISCHARGE (KAF)905105586
54LAUW1KETTLE-AT LAURIER02-20-2024DISCHARGE (KAF)15391525101
55LEOI1KOOTENAI-AT LEONIA02-20-2024DISCHARGE (KAF)3168335894
56LGDW1SNAKE-LOWER GRANITE DAM02-20-2024INFLOW (KAF)145661782882
57LGSW1SNAKE-LITTLE GOOSE DAM02-20-2024INFLOW (KAF)145661786282
58LLKW1SPOKANE-AT LONGLAKE02-20-2024INFLOW (KAF)2496297984
59LMNW1SNAKE-LOWER MONUMENTAL DAM02-20-2024INFLOW (KAF)146881800982
60LUCI1BOISE-LUCKY PEAK DAM02-20-2024INFLOW (KAF)1093898122
61LWRI1LITTLE WOOD-LITTLE WOOD DAM02-20-2024INFLOW (KAF)5951115
62LYDM8KOOTENAI-LIBBY DAM02-20-2024INFLOW (KAF)2910366379
63MACI1BIG LOST-MACKAY RESERVOIR NEAR MACKAY02-20-2024INFLOW (KAF)10066151
64MAGI1BIG WOOD-MAGIC DAM02-20-2024INFLOW (KAF)188154123
65MCDW1COLUMBIA-MCNARY DAM02-20-2024INFLOW (KAF)384335105475
66MILI1SNAKE-AT MILNER02-20-2024DISCHARGE (KAF)M55M
67MODO3DESCHUTES-AT MOODY NR BIGGS02-20-2024DISCHARGE (KAF)15381421108
68MONO3NF JOHN DAY-AT MONUMENT02-20-2024DISCHARGE (KAF)735604122
69MYKO3MCKAY CREEK-NEAR PILOT ROCK02-20-2024DISCHARGE (KAF)343888
70NACW1NACHES-NEAR NACHES02-20-2024DISCHARGE (KAF)486487100
71NOXM8CLARK FORK-NOXON RAPIDS DAM02-20-2024INFLOW (KAF)4708671370
72ORFI1CLEARWATER-AT OROFINO02-20-2024DISCHARGE (KAF)3555397489
73OWYO3OWYHEE-OWYHEE DAM02-20-2024INFLOW (KAF)559268209
74PARI1BOISE-NEAR PARMA02-20-2024DISCHARGE (KAF)495255194
75PARW1YAKIMA-NEAR PARKER02-20-2024DISCHARGE (KAF)58372081
76PATW1METHOW-NEAR PATEROS02-20-2024DISCHARGE (KAF)53766780
77PDTO3UMATILLA-AT PENDLETON02-20-2024DISCHARGE (KAF)205189108
78PESW1WENATCHEE-AT PESHASTIN02-20-2024DISCHARGE (KAF)966107390
79PIHI1PORTNEUF-AT POCATELLO02-20-2024DISCHARGE (KAF)13373181
80PITW1KLICKITAT-NEAR PITT02-20-2024DISCHARGE (KAF)602504119
81PLDI1SF SNAKE-PALISADES DAM02-20-2024INFLOW (KAF)1960198199
82PRTI1PRIEST-NEAR PRIEST RIVER02-20-2024DISCHARGE (KAF)816717114
83PRWW1COLUMBIA-PRIEST RAPIDS DAM02-20-2024INFLOW (KAF)227893186372
84RCCM8ROCK CREEK-NEAR CLINTON02-20-2024DISCHARGE (KAF)14719376
85REXI1HENRYS FORK-AT REXBURG02-20-2024DISCHARGE (KAF)745682109
86RIDI1WILLOW CREEK-RIRIE DAM02-20-2024INFLOW (KAF)7939201
87RILW1TIETON-RIMROCK LAKE NEAR RIMROCK02-20-2024INFLOW (KAF)15015597
88RRHW1COLUMBIA-ROCKY REACH DAM02-20-2024INFLOW (KAF)218333048072
89SATI1ST MARIES-NEAR SANTA02-20-2024DISCHARGE (KAF)145137106
90SERO3JOHN DAY-AT SERVICE CK02-20-2024DISCHARGE (KAF)1117860130
91SHYI1SNAKE-NEAR SHELLEY02-20-2024DISCHARGE (KAF)19401487130
92SIFI1SNAKE-AB EAGLE ROCK NR IDAHO FALLS02-20-2024DISCHARGE (KAF)20651581131
93SJMI1ST JOE-AT ST MARIES02-20-2024STAGE (FT)MMM
94SNAI1SNAKE-AT BLACKFOOT02-20-2024DISCHARGE (KAF)16431075153
95SPDI1CLEARWATER-AT SPALDING02-20-2024DISCHARGE (KAF)4716583481
96SPOW1SPOKANE-AT SPOKANE02-20-2024DISCHARGE (KAF)2196265183
97SRGM8CLARK FORK-AT ST REGIS02-20-2024DISCHARGE (KAF)1968269073
98STRM8ST. REGIS-NEAR ST. REGIS02-20-2024DISCHARGE (KAF)20523787
99SWAI1SNAKE-BELOW SWAN FALLS02-20-2024DISCHARGE (KAF)19221893102
100TCHW1WALLA WALLA-NEAR TOUCHET02-20-2024DISCHARGE (KAF)17320485
101TDAO3COLUMBIA-THE DALLES DAM02-20-2024INFLOW (KAF)415145350078
102TEAI1TETON-NEAR ST. ANTHONY02-20-2024DISCHARGE (KAF)312269116
103TNAW1TEANAWAY-BELOW FORKS02-20-2024DISCHARGE (KAF)146134109
104TONW1OKANOGAN-NEAR TONASKET02-20-2024DISCHARGE (KAF)844121669
105TRYO3GRANDE RONDE-TROY02-20-2024DISCHARGE (KAF)13791286107
106UMAO3UMATILLA-NEAR UMATILLA02-20-2024DISCHARGE (KAF)170168101
107UMTW1YAKIMA-AT UMTANUM02-20-2024DISCHARGE (KAF)60163495
108UNDW1WHITE SALMON-NEAR UNDERWOOD02-20-2024DISCHARGE (KAF)363339107
109WANW1COLUMBIA-WANAPUM DAM02-20-2024INFLOW (KAF)227833179872
110WEII1SNAKE-AT WEISER02-20-2024DISCHARGE (KAF)42964001107
111WELW1COLUMBIA-WELLS DAM02-20-2024INFLOW (KAF)213562975872
112WGCM8MF FLATHEAD-NEAR WEST GLACIER02-20-2024DISCHARGE (KAF)920112782
113WHBI1SALMON-AT WHITEBIRD02-20-2024DISCHARGE (KAF)3638445482
114WRMO3MALHEUR-WARM SPRINGS DAM02-20-2024INFLOW (KAF)12779161
115WSRI1WEISER-NEAR WEISER02-20-2024DISCHARGE (KAF)439417105